K8WEH Weather Reports


time (UTC)temp
C
wind
direction
speed
KPH
gust
KPH
rain 1hr
cm
rain 24hr
cm
rain mn
cm
humidity
%
barometer
mb
20260508183539 20 190 3.2 12.9 0.00 0.00 0.00 38 1014.6
20260508183040 20 269 3.2 16.1 0.00 0.00 0.00 38 1014.5
20260508182536 20 222 4.8 16.1 0.00 0.00 0.00 38 1014.5
20260508182036 20 265 3.2 14.5 0.00 0.00 0.00 40 1014.6
20260508181557 20 236 3.2 8.0 0.00 0.00 0.00 38 1014.6
20260508181036 20 271 3.2 12.9 0.00 0.00 0.00 38 1014.8
20260508180535 20 238 4.8 12.9 0.00 0.00 0.00 36 1015.1
20260508180032 20 161 1.6 8.0 0.00 0.00 0.00 41 1015.1
20260508175531 20 157 1.6 9.7 0.00 0.00 0.00 40 1015.2
20260508175031 19 264 3.2 9.7 0.00 0.00 0.00 41 1015.2
20260508174530 20 285 4.8 11.3 0.00 0.00 0.00 38 1015.3
20260508174029 20 189 3.2 6.4 0.00 0.00 0.00 40 1015.4
20260508173528 20 213 1.6 9.7 0.00 0.00 0.00 41 1015.5
20260508173036 20 232 3.2 9.7 0.00 0.00 0.00 37 1015.5
20260508172526 20 241 3.2 9.7 0.00 0.00 0.00 41 1015.6
20260508172025 20 213 4.8 9.7 0.00 0.00 0.00 41 1015.6
20260508171529 19 92 4.8 16.1 0.00 0.00 0.00 41 1015.7
20260508171023 19 174 4.8 16.1 0.00 0.00 0.00 40 1016.0
20260508170523 19 213 4.8 11.3 0.00 0.00 0.00 43 1016.0
20260508170022 19 231 4.8 9.7 0.00 0.00 0.00 43 1016.0
20260508165521 19 196 3.2 8.0 0.00 0.00 0.00 43 1016.1
20260508165020 19 105 3.2 8.0 0.00 0.00 0.00 42 1016.2
20260508164519 19 145 3.2 9.7 0.00 0.00 0.00 46 1016.1
20260508164018 18 263 1.6 9.7 0.00 0.00 0.00 46 1016.4
20260508163517 18 229 3.2 9.7 0.00 0.00 0.00 44 1016.4
20260508163020 18 134 1.6 9.7 0.00 0.00 0.00 47 1016.5
20260508162515 18 176 3.2 9.7 0.00 0.00 0.00 45 1016.5
20260508162015 18 227 1.6 8.0 0.00 0.00 0.00 44 1016.7
20260508161522 18 159 3.2 8.0 0.00 0.00 0.00 43 1016.9
20260508161011 18 188 1.6 8.0 0.00 0.00 0.00 47 1017.1
20260508160509 17 249 0.0 8.0 0.00 0.00 0.00 48 1017.1
20260508160008 17 102 3.2 8.0 0.00 0.00 0.00 46 1017.3
20260508155507 17 304 3.2 6.4 0.00 0.00 0.00 45 1017.3
20260508155007 17 232 3.2 9.7 0.00 0.00 0.00 44 1017.4
20260508154506 17 109 1.6 9.7 0.00 0.00 0.00 47 1017.4
20260508154004 17 280 3.2 4.8 0.00 0.00 0.00 48 1017.6
20260508153503 16 111 1.6 6.4 0.00 0.00 0.00 47 1017.6
20260508153002 16 223 3.2 11.3 0.00 0.00 0.00 50 1017.6
20260508152600 15 141 1.6 11.3 0.00 0.00 0.00 48 1017.7
20260508152100 15 178 1.6 8.0 0.00 0.00 0.00 49 1017.8
20260508151608 15 232 3.2 11.3 0.00 0.00 0.00 49 1017.8
20260508151058 15 186 1.6 11.3 0.00 0.00 0.00 52 1017.7
20260508150556 15 202 1.6 6.4 0.00 0.00 0.00 52 1017.7
20260508150055 14 89 0.0 11.3 0.00 0.00 0.00 54 1017.8
20260508145554 14 155 3.2 11.3 0.00 0.00 0.00 53 1017.9
20260508145053 13 144 1.6 9.7 0.00 0.00 0.00 54 1017.9
20260508144552 13 140 3.2 9.7 0.00 0.00 0.00 54 1017.8
20260508144051 13 153 1.6 9.7 0.00 0.00 0.00 54 1017.9
20260508143551 13 24 1.6 9.7 0.00 0.00 0.00 54 1017.9
20260508143050 13 204 3.2 8.0 0.00 0.00 0.00 55 1018.0
20260508142546 13 128 3.2 6.4 0.00 0.00 0.00 56 1017.9
20260508142045 12 148 1.6 6.4 0.00 0.00 0.00 56 1017.9
20260508141545 12 131 0.0 6.4 0.00 0.00 0.00 57 1017.9
20260508141043 12 132 3.2 6.4 0.00 0.00 0.00 58 1018.0
20260508140542 12 108 0.0 6.4 0.00 0.00 0.00 58 1017.9
20260508140042 12 217 1.6 6.4 0.00 0.00 0.00 58 1017.9
20260508135542 12 169 1.6 6.4 0.00 0.00 0.00 58 1018.0
20260508135041 11 234 1.6 6.4 0.00 0.00 0.00 56 1018.0
20260508134539 11 128 1.6 8.0 0.00 0.00 0.00 57 1018.1
20260508134038 11 161 3.2 6.4 0.00 0.00 0.00 57 1018.1
20260508133536 11 151 1.6 12.9 0.00 0.00 0.00 59 1018.0
20260508133053 11 132 0.0 8.0 0.00 0.00 0.00 62 1018.0
20260508132534 10 132 0.0 8.0 0.00 0.00 0.00 61 1018.1
20260508132033 10 132 1.6 4.8 0.00 0.00 0.00 61 1018.0
20260508131533 10 203 1.6 9.7 0.00 0.00 0.00 60 1018.1
20260508131032 10 182 3.2 9.7 0.00 0.00 0.00 62 1018.1
20260508130529 10 143 3.2 6.4 0.00 0.00 0.00 63 1018.0
20260508130029 9 155 0.0 3.2 0.00 0.00 0.00 65 1018.2
20260508125528 9 155 0.0 4.8 0.00 0.00 0.00 67 1018.1
20260508125027 9 156 1.6 4.8 0.00 0.00 0.00 67 1018.2
20260508124525 8 146 1.6 4.8 0.00 0.00 0.00 68 1018.2
20260508124024 8 146 0.0 9.7 0.00 0.00 0.00 70 1018.2
20260508123522 8 146 3.2 9.7 0.00 0.00 0.00 70 1018.3
20260508123020 8 136 0.0 3.2 0.00 0.00 0.00 72 1018.3
20260508122520 7 136 0.0 3.2 0.00 0.00 0.00 74 1018.3
20260508122018 7 136 0.0 3.2 0.00 0.00 0.00 75 1018.3
20260508121516 7 136 0.0 3.2 0.00 0.00 0.00 76 1018.2
20260508121014 6 136 0.0 3.2 0.00 0.00 0.00 77 1018.2
20260508120513 6 136 0.0 3.2 0.00 0.00 0.00 78 1018.2
20260508120113 6 136 0.0 3.2 0.00 0.00 0.00 78 1018.1
20260508115510 5 136 0.0 3.2 0.00 0.00 0.00 76 1018.2
20260508115010 5 136 1.6 3.2 0.00 0.00 0.00 71 1018.0
20260508114508 5 136 0.0 3.2 0.00 0.00 0.00 71 1017.9
20260508114006 5 136 0.0 3.2 0.00 0.00 0.00 71 1018.0
20260508113507 4 136 0.0 3.2 0.00 0.00 0.00 70 1018.0
20260508113011 4 136 0.0 3.2 0.00 0.00 0.00 69 1017.9
20260508112505 4 136 0.0 1.6 0.00 0.00 0.00 68 1017.9
20260508112005 4 136 0.0 1.6 0.00 0.00 0.00 69 1018.0
20260508111508 3 203 0.0 1.6 0.00 0.00 0.00 69 1017.9
20260508111005 3 187 0.0 1.6 0.00 0.00 0.00 67 1018.0
20260508110504 3 187 0.0 1.6 0.00 0.00 0.00 67 1018.0
20260508110004 3 187 0.0 3.2 0.00 0.00 0.00 67 1017.9
20260508105503 3 187 0.0 3.2 0.00 0.00 0.00 67 1017.7
20260508105002 3 274 0.0 0.0 0.00 0.00 0.00 66 1017.7
20260508104502 3 274 0.0 0.0 0.00 0.00 0.00 67 1017.7
20260508104002 3 274 0.0 0.0 0.00 0.00 0.00 67 1017.8
20260508103502 3 274 0.0 0.0 0.00 0.00 0.00 67 1017.7
20260508103002 3 274 0.0 0.0 0.00 0.00 0.00 67 1017.8
20260508102502 3 274 0.0 0.0 0.00 0.00 0.00 67 1017.8
20260508102101 3 274 0.0 0.0 0.00 0.00 0.00 67 1017.7
20260508101600 3 274 0.0 0.0 0.00 0.00 0.00 68 1017.8
20260508101100 3 274 0.0 0.0 0.00 0.00 0.00 68 1017.8
20260508100559 3 274 0.0 0.0 0.00 0.00 0.00 68 1017.7
20260508100059 3 274 0.0 0.0 0.00 0.00 0.00 68 1017.7
20260508095559 3 274 0.0 0.0 0.00 0.00 0.00 68 1017.7
20260508095059 3 274 0.0 0.0 0.00 0.00 0.00 68 1017.8
20260508094607 3 274 0.0 0.0 0.00 0.00 0.00 68 1017.7
20260508094057 3 274 0.0 0.0 0.00 0.00 0.00 68 1017.7
20260508093558 3 274 0.0 0.0 0.00 0.00 0.00 69 1017.6
20260508093057 3 274 0.0 0.0 0.00 0.00 0.00 69 1017.7
20260508092555 3 274 0.0 0.0 0.00 0.00 0.00 69 1017.7
20260508092056 3 274 0.0 0.0 0.00 0.00 0.00 69 1017.6
20260508091559 3 274 0.0 0.0 0.00 0.00 0.00 69 1017.6
20260508091054 3 274 0.0 0.0 0.00 0.00 0.00 70 1017.5
20260508090554 3 274 0.0 0.0 0.00 0.00 0.00 70 1017.6
20260508090056 3 274 0.0 0.0 0.00 0.00 0.00 70 1017.6
20260508085553 3 274 0.0 0.0 0.00 0.00 0.00 70 1017.5
20260508085055 3 274 0.0 0.0 0.00 0.00 0.00 70 1017.4
20260508084553 3 274 0.0 0.0 0.00 0.00 0.00 69 1017.4
20260508084054 3 274 0.0 0.0 0.00 0.00 0.00 69 1017.3
20260508083552 3 274 0.0 0.0 0.00 0.00 0.00 70 1017.4
20260508083056 3 274 0.0 0.0 0.00 0.00 0.00 69 1017.3
20260508082552 3 274 0.0 0.0 0.00 0.00 0.00 69 1017.2
20260508082052 3 274 0.0 0.0 0.00 0.00 0.00 69 1017.2
20260508081606 3 274 0.0 0.0 0.00 0.00 0.00 69 1017.2
20260508081054 3 274 0.0 0.0 0.00 0.00 0.00 69 1017.2
20260508080552 3 274 0.0 0.0 0.00 0.00 0.00 69 1017.2
20260508080056 3 274 0.0 0.0 0.00 0.00 0.00 69 1017.3
20260508075551 3 274 0.0 0.0 0.00 0.00 0.00 69 1017.2
20260508075050 3 274 0.0 0.0 0.00 0.00 0.00 69 1017.3
20260508074550 3 274 0.0 0.0 0.00 0.00 0.00 69 1017.3
20260508074051 3 274 0.0 0.0 0.00 0.00 0.00 69 1017.2
20260508073551 3 274 0.0 0.0 0.00 0.00 0.00 70 1017.3
20260508073049 3 274 0.0 0.0 0.00 0.00 0.00 69 1017.3
20260508072548 3 274 0.0 0.0 0.00 0.00 0.00 69 1017.3
20260508072048 3 274 0.0 0.0 0.00 0.00 0.00 69 1017.3
20260508071648 3 274 0.0 0.0 0.00 0.00 0.00 69 1017.2
20260508071048 3 274 0.0 0.0 0.00 0.00 0.00 70 1017.3
20260508070547 3 274 0.0 0.0 0.00 0.00 0.00 70 1017.3
20260508070053 3 274 0.0 0.0 0.00 0.00 0.00 70 1017.3
20260508065547 3 274 0.0 0.0 0.00 0.00 0.00 70 1017.4
20260508065147 3 274 0.0 0.0 0.00 0.00 0.00 70 1017.4
20260508064545 3 274 0.0 0.0 0.00 0.00 0.00 70 1017.6
20260508064045 3 274 0.0 0.0 0.00 0.00 0.00 71 1017.6
20260508063545 3 274 0.0 0.0 0.00 0.00 0.00 71 1017.5
20260508063044 3 274 0.0 0.0 0.00 0.00 0.00 71 1017.5
20260508062544 3 274 0.0 0.0 0.00 0.00 0.00 71 1017.5
20260508062043 3 274 0.0 0.0 0.00 0.00 0.00 71 1017.5
20260508061543 3 274 0.0 0.0 0.00 0.00 0.00 72 1017.6
20260508061045 3 274 0.0 0.0 0.00 0.00 0.00 72 1017.6
20260508060543 3 274 0.0 0.0 0.00 0.00 0.00 72 1017.5
20260508060042 3 274 0.0 0.0 0.00 0.00 0.00 72 1017.5
20260508055544 3 274 0.0 0.0 0.00 0.00 0.00 72 1017.6
20260508055043 3 274 0.0 0.0 0.00 0.00 0.00 73 1017.5
20260508054545 4 274 0.0 0.0 0.00 0.00 0.00 73 1017.5
20260508054041 4 274 0.0 0.0 0.00 0.00 0.00 73 1017.5
20260508053541 4 274 0.0 0.0 0.00 0.00 0.00 73 1017.5
20260508053040 4 274 0.0 0.0 0.00 0.00 0.00 73 1017.5
20260508052541 4 274 0.0 0.0 0.00 0.00 0.00 73 1017.5
20260508052040 4 274 0.0 0.0 0.00 0.00 0.00 73 1017.4
20260508051539 4 274 0.0 0.0 0.00 0.00 0.00 74 1017.4
20260508051039 4 274 0.0 0.0 0.00 0.00 0.00 74 1017.5
20260508050541 4 274 0.0 0.0 0.00 0.00 0.00 74 1017.5
20260508050039 4 274 0.0 0.0 0.00 0.00 0.00 74 1017.6
20260508045538 4 274 0.0 0.0 0.00 0.00 0.00 74 1017.6
20260508045037 4 274 0.0 0.0 0.00 0.00 0.00 75 1017.6
20260508044551 4 274 0.0 0.0 0.00 0.00 0.00 75 1017.6
20260508044037 4 274 0.0 0.0 0.00 0.00 0.00 75 1017.6
20260508043536 4 274 0.0 0.0 0.00 0.00 0.00 75 1017.5
20260508043043 4 274 0.0 0.0 0.00 0.00 0.00 75 1017.6
20260508042535 4 274 0.0 0.0 0.00 0.00 0.00 75 1017.6
20260508042036 5 274 0.0 0.0 0.00 0.00 0.00 76 1017.6
20260508041535 5 274 0.0 0.0 0.00 0.00 0.00 76 1017.5
20260508041034 5 274 0.0 0.0 0.00 0.00 0.00 76 1017.5
20260508040533 5 274 0.0 0.0 0.00 0.00 0.00 76 1017.4
20260508040032 5 274 0.0 0.0 0.00 0.00 0.00 77 1017.3
20260508035531 5 274 0.0 0.0 0.00 0.00 0.00 77 1017.3
20260508035031 5 274 0.0 0.0 0.00 0.00 0.00 77 1017.3
20260508034541 5 274 0.0 0.0 0.00 0.00 0.00 77 1017.3
20260508034031 5 274 0.0 0.0 0.00 0.00 0.00 77 1017.3
20260508033532 5 274 0.0 0.0 0.00 0.00 0.00 77 1017.4
20260508033031 5 274 0.0 0.0 0.00 0.00 0.00 77 1017.4
20260508032532 5 274 0.0 0.0 0.00 0.00 0.00 77 1017.5
20260508032030 5 274 0.0 0.0 0.00 0.00 0.00 77 1017.5
20260508031531 5 274 0.0 0.0 0.00 0.00 0.00 78 1017.5
20260508031030 5 274 0.0 0.0 0.00 0.00 0.00 78 1017.6
20260508030530 5 274 0.0 0.0 0.00 0.00 0.00 78 1017.6
20260508030030 5 274 0.0 0.0 0.00 0.00 0.00 78 1017.5
20260508025529 5 274 0.0 0.0 0.00 0.00 0.00 78 1017.5
20260508025030 5 274 0.0 0.0 0.00 0.00 0.00 78 1017.5
20260508024535 6 274 0.0 0.0 0.00 0.00 0.00 78 1017.5
20260508024030 6 274 0.0 0.0 0.00 0.00 0.00 78 1017.4
20260508023529 6 274 0.0 0.0 0.00 0.00 0.00 77 1017.4
20260508023031 6 274 0.0 0.0 0.00 0.00 0.00 77 1017.4
20260508022528 6 274 0.0 0.0 0.00 0.00 0.00 77 1017.5
20260508022028 6 274 0.0 0.0 0.00 0.00 0.00 77 1017.5
20260508021528 6 274 0.0 0.0 0.00 0.00 0.00 76 1017.5
20260508021028 6 274 0.0 0.0 0.00 0.00 0.00 76 1017.4
20260508020528 7 274 0.0 0.0 0.00 0.00 0.00 76 1017.3
20260508020028 7 274 0.0 0.0 0.00 0.00 0.00 76 1017.2
20260508015528 7 274 0.0 0.0 0.00 0.00 0.00 75 1017.3
20260508015028 7 274 0.0 0.0 0.00 0.00 0.00 75 1017.2
20260508014528 7 274 0.0 0.0 0.00 0.00 0.00 74 1017.2
20260508014028 7 274 0.0 0.0 0.00 0.00 0.00 73 1017.2
20260508013528 7 274 0.0 0.0 0.00 0.00 0.00 72 1017.1
20260508013027 7 274 0.0 0.0 0.00 0.00 0.00 72 1017.1
20260508012527 8 274 0.0 0.0 0.00 0.00 0.00 71 1016.9
20260508012026 8 274 0.0 0.0 0.00 0.00 0.00 71 1016.9
20260508011538 8 274 0.0 0.0 0.00 0.00 0.00 69 1016.7
20260508011025 8 274 0.0 0.0 0.00 0.00 0.00 69 1016.6
20260508010525 8 274 0.0 0.0 0.00 0.00 0.00 68 1016.5
20260508010025 9 274 0.0 0.0 0.00 0.00 0.00 67 1016.4
20260508005525 9 274 0.0 0.0 0.00 0.00 0.00 66 1016.3
20260508005026 10 274 0.0 0.0 0.00 0.00 0.00 66 1016.3
20260508004529 10 274 0.0 0.0 0.00 0.00 0.00 63 1016.2
20260508004026 10 274 0.0 0.0 0.00 0.00 0.00 62 1016.2
20260508003525 10 274 0.0 0.0 0.00 0.00 0.00 63 1016.2
20260508003023 11 274 0.0 0.0 0.00 0.00 0.00 63 1016.2
20260508002524 11 274 0.0 0.0 0.00 0.00 0.00 61 1016.2
20260508002024 11 274 0.0 0.0 0.00 0.00 0.00 57 1016.2
20260508001523 11 274 0.0 0.0 0.00 0.00 0.00 60 1016.1
20260508001023 12 274 0.0 0.0 0.00 0.00 0.00 60 1015.9
20260508000523 12 274 0.0 0.0 0.00 0.00 0.00 57 1015.9
20260508000024 12 274 0.0 0.0 0.00 0.00 0.00 58 1015.8
20260507235523 12 287 0.0 3.2 0.00 0.00 0.00 58 1015.8
20260507235023 13 287 0.0 3.2 0.00 0.00 0.00 56 1015.7
20260507234523 13 287 0.0 4.8 0.00 0.00 0.00 53 1015.7
20260507234022 13 287 1.6 4.8 0.00 0.00 0.00 48 1015.7
20260507233525 13 287 1.6 3.2 0.00 0.00 0.00 47 1015.7
20260507233026 13 286 1.6 4.8 0.00 0.00 0.00 44 1015.7
20260507232521 13 286 1.6 4.8 0.00 0.00 0.00 47 1015.7
20260507232021 13 268 1.6 3.2 0.00 0.00 0.00 44 1015.7
20260507231534 13 268 1.6 4.8 0.00 0.00 0.00 43 1015.6
20260507231021 13 268 1.6 4.8 0.00 0.00 0.00 44 1015.6
20260507230522 13 259 1.6 4.8 0.00 0.00 0.00 44 1015.5
20260507230021 13 257 1.6 4.8 0.00 0.00 0.00 47 1015.5
20260507225521 13 3 1.6 4.8 0.00 0.00 0.00 49 1015.5
20260507225024 13 3 1.6 4.8 0.00 0.00 0.00 48 1015.5
20260507224522 13 3 1.6 4.8 0.00 0.00 0.00 46 1015.4
20260507224020 13 359 0.0 6.4 0.00 0.00 0.00 45 1015.5
20260507223525 13 6 4.8 6.4 0.00 0.00 0.00 44 1015.7
20260507223020 14 303 3.2 6.4 0.00 0.00 0.00 43 1015.7
20260507222519 14 313 1.6 6.4 0.00 0.00 0.00 42 1015.7
20260507222021 14 313 3.2 6.4 0.00 0.00 0.00 43 1015.6
20260507221521 14 173 3.2 6.4 0.00 0.00 0.00 41 1015.6
20260507221020 14 158 1.6 8.0 0.00 0.00 0.00 40 1015.7
20260507220519 14 213 4.8 8.0 0.00 0.00 0.00 41 1015.7
20260507220023 14 271 1.6 4.8 0.00 0.00 0.00 42 1015.5
20260507215520 14 340 1.6 4.8 0.00 0.00 0.00 46 1015.6
20260507215020 14 243 3.2 4.8 0.00 0.00 0.00 42 1015.6
20260507214519 14 213 1.6 8.0 0.00 0.00 0.00 44 1015.5
20260507214019 14 264 1.6 8.0 0.00 0.00 0.00 40 1015.5
20260507213521 14 319 4.8 12.9 0.00 0.00 0.00 39 1015.5
20260507213025 14 313 4.8 14.5 0.00 0.00 0.00 41 1015.4
20260507212517 14 349 1.6 14.5 0.00 0.00 0.00 42 1015.3
20260507212016 14 227 3.2 9.7 0.00 0.00 0.00 40 1015.3
20260507211516 14 74 1.6 9.7 0.00 0.00 0.00 37 1015.3
20260507211014 15 262 3.2 8.0 0.00 0.00 0.00 39 1015.3
20260507210515 15 275 3.2 8.0 0.00 0.00 0.00 39 1015.2
20260507210014 15 238 1.6 6.4 0.00 0.00 0.00 41 1015.1
20260507205514 14 286 1.6 8.0 0.00 0.00 0.00 41 1015.1
20260507205011 14 159 3.2 17.7 0.00 0.00 0.00 41 1015.1
20260507204509 14 340 9.7 17.7 0.00 0.00 0.00 38 1015.2
20260507204009 14 359 1.6 9.7 0.00 0.00 0.00 38 1015.1
20260507203507 15 354 3.2 9.7 0.00 0.00 0.00 41 1015.1
20260507203004 15 320 4.8 8.0 0.00 0.00 0.00 39 1015.0
20260507202502 14 303 1.6 9.7 0.00 0.00 0.00 39 1015.0
20260507202002 14 325 4.8 12.9 0.00 0.00 0.00 38 1015.0
20260507201501 15 336 4.8 12.9 0.00 0.00 0.00 38 1015.0
20260507201001 15 349 3.2 6.4 0.00 0.00 0.00 42 1015.1
20260507200600 15 349 3.2 6.4 0.00 0.00 0.00 42 1015.1
20260507200100 15 304 3.2 8.0 0.00 0.00 0.00 37 1015.2
20260507195601 15 327 3.2 8.0 0.00 0.00 0.00 42 1015.3
20260507195100 15 297 3.2 8.0 0.00 0.00 0.00 37 1015.1
20260507194558 15 248 3.2 11.3 0.00 0.00 0.00 37 1015.2
20260507194057 15 301 6.4 11.3 0.00 0.00 0.00 35 1015.3
20260507193555 15 335 4.8 9.7 0.00 0.00 0.00 38 1015.3
20260507193059 15 349 4.8 16.1 0.00 0.00 0.00 36 1015.3
20260507192554 15 324 4.8 16.1 0.00 0.00 0.00 35 1015.5
20260507192053 15 344 3.2 9.7 0.00 0.00 0.00 38 1015.5
20260507191553 15 43 3.2 11.3 0.00 0.00 0.00 38 1015.3
20260507191050 15 315 3.2 8.0 0.00 0.00 0.00 36 1015.3
20260507190549 15 354 3.2 8.0 0.00 0.00 0.00 39 1015.5
20260507190047 15 239 3.2 12.9 0.00 0.00 0.00 36 1015.3
20260507185546 15 325 4.8 12.9 0.00 0.00 0.00 36 1015.5
20260507185046 16 265 1.6 8.0 0.00 0.00 0.00 37 1015.6
20260507184545 16 230 1.6 8.0 0.00 0.00 0.00 39 1015.4
20260507184042 15 290 1.6 8.0 0.00 0.00 0.00 40 1015.5